Regional Weather Roundup
Issued by NWS

Home | Current Version | Previous Version | Graphics & Text | Print | Product List | Glossary On
Versions: 1 2 3 4 5 6 7 8 9 10 11 12 13 14 15 16 17 18 19 20 21 22 23 24 25 26 27 28 29 30 31 32 33 34 35 36 37 38 39 40 41 42 43 44 45 46 47 48 49 50
145
ASUS43 KOAX 230810
RWRNE

WEATHER ROUNDUP FOR NEBRASKA
NATIONAL WEATHER SERVICE OMAHA NE
300 AM CDT WED MAY 23 2018

NOTES: SATELLITE DATA IS BEING USED TO AUGMENT CLOUD COVER ABOVE
       12000 FEET.
       "FAIR" INDICATES FEW OR NO CLOUDS BELOW 12,000 FEET WITH NO
       SIGNIFICANT WEATHER AND/OR OBSTRUCTIONS TO VISIBILITY.


NEZ001>004-019>022-054>056-230900-
NEBRASKA PANHANDLE

CITY           SKY/WX    TMP DP  RH WIND       PRES   REMARKS
SCOTTSBLUFF    MOCLDY    57  56  96 SW7       29.92S
ALLIANCE       MOCLDY    57  55  93 N7        29.91F
CHADRON        MOCLDY    55  55 100 S5        29.91F
GORDON         FAIR      59  55  88 NW9       29.90F
KIMBALL        MOCLDY    55  50  82 NW6       29.95F
SIDNEY         PTCLDY    57  53  86 N9        29.93F
$$

NEZ057>060-069>072-079>082-230900-
SOUTHWEST NEBRASKA

CITY           SKY/WX    TMP DP  RH WIND       PRES   REMARKS
NORTH PLATTE   MOCLDY    70  60  70 S12G23    29.91F
IMPERIAL       MOCLDY    65  57  75 S9        29.92R
LEXINGTON      MOCLDY    70  63  78 S13       29.93S
MCCOOK         MOCLDY    67  58  72 S12       29.93R
OGALLALA       PTCLDY    65  55  69 W6        29.91R
$$

NEZ005>010-023>029-035>040-094-230900-
NORTH CENTRAL NEBRASKA

CITY           SKY/WX    TMP DP  RH WIND       PRES   REMARKS
VALENTINE      MOCLDY    67  59  75 SE12      29.89F
AINSWORTH      CLOUDY    68  60  75 S12       29.92S
BROKEN BOW     MOCLDY    70  63  78 S12       29.93S
O`NEILL        MOCLDY    71  64  79 SE5       29.93F
ORD            CLOUDY    69  63  81 SE7       29.92S
THEDFORD       PTCLDY    68  61  76 S13       29.91F
$$

NEZ041-046>049-061>064-073>077-083>087-230900-
SOUTH CENTRAL NEBRASKA

CITY           SKY/WX    TMP DP  RH WIND       PRES   REMARKS
GRAND ISLAND   CLEAR     69  62  78 S10       29.96F
AURORA         CLEAR     67  64  87 S9        29.97S
HASTINGS       CLOUDY    70  62  76 S10       29.97S
HEBRON         CLEAR     71  64  80 S9        29.98S
HOLDREGE       PTCLDY    69  62  79 S12       29.96R
KEARNEY        PTCLDY    69  62  78 S12       29.95F
YORK           CLEAR     68  68 100 S10       29.98S
$$

NEZ011>018-030>034-042>045-230900-
NORTHEAST NEBRASKA

CITY           SKY/WX    TMP DP  RH WIND       PRES   REMARKS
NORFOLK        CLOUDY    70  63  78 S10       29.95S
ALBION         CLOUDY    67  64  87 SE6       29.96S
BLAIR          CLEAR     71  64  78 SE9       29.98S
COLUMBUS       PTCLDY    71  64  78 S15       29.97R
FREMONT        CLEAR     71  64  77 SE8       29.98S
TEKAMAH        PTCLDY    65  63  93 SE7       29.97S
WAYNE          CLEAR     64  63  97 S3        29.96S
$$

NEZ050>053-065>068-078-088>093-230900-
SOUTHEAST NEBRASKA

CITY           SKY/WX    TMP DP  RH WIND       PRES   REMARKS
LINCOLN        CLEAR     67  62  84 S8        29.98S
OMAHA EPPLEY   PTCLDY    69  63  81 S8        29.98F
BEATRICE       CLEAR     70  65  85 S6        30.00R
FALLS CITY     CLEAR     66  62  87 SE7       30.00S
NEBRASKA CITY  CLEAR     69  67  92 S9        30.00F
PLATTSMOUTH    CLEAR     69  64  81 SE8       30.00S
$$

NEZ044-045-051>053-067-230900-
OMAHA AREA

CITY           SKY/WX    TMP DP  RH WIND       PRES   REMARKS
OMAHA EPPLEY   PTCLDY    69  63  81 S8        29.98F
BLAIR          CLEAR     71  64  78 SE9       29.98S
FREMONT        CLEAR     71  64  77 SE8       29.98S
MILLARD        CLEAR     69  64  85 SE5       29.98S
OFFUTT AFB     CLEAR     67  63  87 SE5       29.98S
PLATTSMOUTH    CLEAR     69  64  81 SE8       30.00S
WAHOO          FAIR      67  62  84 SE8       29.98S
$$




USA.gov is the U.S. government's official web portal to all federal, state and local government web resources and services.